CAPE
0 0 1 0 0 0 0 0 0 0 0 0 0 1 41 14 98 142 12 0 0 0 6 50 156 0 0 0 0 0 1 23 0 22 0 73 1 48 0 0 0 0 0 5 0 20 0 0 0 7 2 12 0 0 0 0 4 5 22 9 6 9 26 21 8 0 0 0 0 0 0 0 0 0 1 0 0 0 0 10 22 287 593 565 358 250 296
0 0 0 0 0 0 0 0 0 0 0 0 0 10 0 0 13 95 0 0 0 0 5 63 2 0 0 0 0 0 0 4 0 28 0 39 5 33 12 0 0 10 0 1 7 0 37 12 24 17 2 1 0 0 0 0 1 2 13 0 0 8 25 16 14 1 0 0 0 0 0 0 0 0 0 0 1 0 8 21 330 123 599 576 478 228 190
0 0 0 0 0 0 0 0 0 0 0 0 0 50 2 51 108 149 0 0 0 0 0 0 0 0 0 0 0 0 0 0 0 0 0 0 0 9 5 0 0 2 0 0 0 15 147 7 0 0 0 2 0 0 0 0 0 2 9 539 112 6 5 23 9 7 2 18 24 6 2 0 0 0 0 1 3 8 23 27 20 159 481 739 424 266 123
0 0 0 0 0 0 0 0 0 0 0 0 0 107 57 178 78 70 20 0 0 0 0 0 0 0 0 0 0 0 0 0 0 0 0 0 0 0 0 0 0 0 0 28 0 0 1 0 212 140 0 0 0 0 0 0 0 262 259 703 29 13 10 70 158 13 1 16 1 4 3 0 0 0 0 0 1 0 11 9 22 388 536 820 474 270 170
0 0 0 0 0 0 0 0 0 0 0 0 0 89 212 310 484 0 0 0 0 0 0 0 0 0 0 6 0 0 0 0 0 0 0 0 0 0 0 0 104 19 31 34 30 184 95 15 81 211 0 0 0 0 0 0 0 113 356 11 26 20 34 40 32 31 16 12 1 0 0 0 0 0 0 0 0 6 4 0 253 541 507 673 612 301 200
0 0 0 0 0 0 0 0 0 0 0 0 170 450 397 76 0 0 0 0 0 0 0 0 0 0 0 0 0 0 0 0 0 0 0 0 0 22 0 0 6 17 40 76 238 168 187 145 168 30 12 2 0 0 0 0 0 2 0 0 8 16 30 46 51 48 26 12 16 0 0 0 0 0 0 0 0 0 1 2 0 0 155 644 533 334 251
0 0 0 0 0 0 0 0 0 0 0 72 567 568 178 28 0 0 11 0 0 0 0 0 0 0 0 0 0 0 0 0 0 0 0 0 0 1 54 0 32 73 146 263 323 266 277 256 383 101 25 0 0 2 1 0 0 0 0 0 0 5 28 31 36 45 26 17 11 5 2 0 0 0 0 0 0 2 2 1 2 374 639 758 446 375 267
0 0 0 0 0 0 0 0 0 0 0 190 1114 257 9 72 176 157 155 98 2 0 0 0 0 0 6 7 0 0 0 0 0 0 0 0 0 0 1 1 48 72 169 389 138 45 225 390 178 200 5 0 0 2 0 46 0 1 0 0 0 0 0 18 2 8 4 6 1 0 0 0 0 0 0 0 4 15 2 421 732 877 772 526 453 393 237
0 0 0 0 0 0 0 0 0 0 0 422 681 123 2 9 131 458 646 216 3 0 0 54 7 3 0 0 0 0 0 0 0 0 0 0 0 0 0 0 0 8 26 13 11 2 52 0 0 0 0 0 0 0 0 0 0 7 28 0 0 0 1 0 0 0 0 0 0 0 0 1 0 0 0 0 0 0 9 176 234 695 807 612 474 363 248
0 0 0 0 0 0 0 0 0 0 0 231 499 267 44 6 89 464 959 602 295 0 0 0 0 0 0 0 0 0 0 0 0 34 0 0 0 0 0 4 35 2 56 0 0 0 0 0 0 0 0 0 0 0 0 0 0 0 0 0 0 0 0 0 0 0 0 0 0 0 0 1 1 10 14 6 0 0 0 740 678 631 733 648 472 321 233
0 0 0 0 0 0 0 0 0 0 0 0 135 614 88 1 117 446 874 916 446 242 0 0 0 0 0 0 0 0 0 0 0 10 0 0 0 0 0 48 28 2 0 0 0 0 0 0 0 0 0 0 0 0 0 0 0 0 0 0 0 12 0 0 0 0 0 0 0 0 0 0 2 4 3 2 75 61 0 560 791 744 640 575 452 512 183
0 0 0 0 0 0 0 0 0 0 0 0 0 516 68 64 335 628 953 937 595 451 0 0 0 0 0 0 0 0 0 0 0 0 0 0 0 0 0 0 28 11 0 0 0 0 0 0 0 0 0 0 0 0 0 0 0 76 0 0 0 37 49 1 0 0 0 0 0 0 0 5 6 0 0 1 119 267 466 531 462 468 473 488 511 409 278
0 0 0 0 0 0 0 0 0 0 0 0 40 448 178 223 516 739 986 1044 769 878 0 0 0 0 0 0 0 0 0 0 0 0 0 0 0 0 0 0 0 0 0 0 0 0 0 0 0 0 0 0 0 0 0 0 0 0 0 0 0 0 2 8 74 0 0 0 0 0 0 78 27 0 0 0 10 159 342 407 462 581 553 438 458 352 242
0 0 0 0 0 0 0 0 0 0 0 0 271 324 121 166 542 688 846 769 1031 882 0 44 0 0 0 0 0 0 0 0 0 0 0 0 0 0 0 0 0 0 0 0 0 2 60 0 4 0 0 0 0 0 6 0 0 0 0 0 0 0 0 81 37 79 11 0 0 0 84 46 20 3 0 0 6 0 99 243 284 484 509 478 466 312 207
0 0 0 0 0 0 0 0 0 0 0 0 3 480 489 230 611 642 745 1032 1152 887 12 18 0 0 0 0 0 0 0 0 0 0 0 0 0 0 0 0 0 0 0 0 86 35 37 78 63 44 100 22 0 30 0 1 0 0 0 0 0 0 0 105 2 82 43 0 0 112 0 0 49 39 3 14 8 62 75 212 213 265 544 480 338 255 174
0 0 0 0 0 0 0 0 0 0 0 0 0 186 559 354 357 548 649 1084 1083 437 3 0 0 0 0 0 0 0 112 118 45 23 0 0 0 0 0 0 0 0 0 0 86 4 109 104 83 5 0 20 0 0 0 0 0 0 0 4 0 0 0 0 0 51 0 3 0 0 0 90 57 5 0 0 0 0 0 17 243 234 594 522 398 388 260
0 0 0 0 0 0 0 0 0 0 0 0 0 0 570 699 438 388 647 723 627 400 348 0 0 0 0 0 0 0 23 10 94 36 15 91 40 0 0 0 0 0 0 0 1 5 6 0 51 7 8 0 0 0 0 0 0 0 0 0 0 0 0 0 0 0 0 0 0 0 320 40 116 16 0 0 0 0 0 0 59 244 540 509 435 371 318
0 0 0 0 0 0 0 0 0 0 0 0 0 0 286 714 612 454 374 323 138 192 2 0 0 0 114 30 149 0 16 3 65 46 10 56 79 0 0 0 0 0 0 0 20 53 133 41 42 3 0 0 0 0 0 0 0 0 15 38 17 0 0 0 0 0 0 0 0 8 190 194 16 0 0 0 0 0 0 0 290 238 467 514 448 409 326
0 0 0 0 0 0 0 0 0 0 0 0 0 18 591 712 812 288 240 224 7 36 80 21 0 0 0 0 15 0 0 0 0 23 96 131 177 91 0 0 0 20 0 0 16 18 18 38 100 6 0 0 0 0 0 0 0 0 0 0 0 0 0 0 0 0 0 0 0 0 382 288 0 0 0 0 0 0 4 179 209 220 358 452 399 334 170
0 0 0 0 0 0 0 0 0 0 0 0 0 0 119 402 794 334 43 63 3 0 0 4 0 0 0 0 0 0 5 0 0 7 3 116 60 46 86 0 0 0 58 0 0 133 16 4 248 84 0 8 26 2 0 0 0 0 0 0 0 3 0 0 0 0 0 0 0 0 92 152 66 0 0 0 0 142 134 164 64 278 359 291 265 74 23
0 0 0 0 0 0 0 0 0 0 0 0 0 0 231 519 756 631 228 192 40 65 80 0 0 0 0 0 0 0 0 0 48 69 188 174 251 96 28 343 74 2 220 171 44 83 42 4 5 23 3 0 45 0 0 0 0 0 0 0 0 0 0 0 0 0 0 0 0 52 262 70 17 23 16 121 310 183 348 138 148 182 218 156 108 12 0
0 0 0 0 0 0 0 0 0 0 0 0 0 1 282 355 471 450 509 322 278 148 0 58 51 0 0 0 0 0 0 0 0 8 75 201 127 70 94 48 318 104 112 2 0 14 152 0 14 22 30 13 3 0 156 0 0 34 0 0 0 2 0 306 334 10 0 0 0 0 0 137 81 179 270 323 416 422 172 2 0 108 164 114 106 19 0
0 0 0 0 0 0 0 0 0 0 0 0 0 1 42 85 174 316 469 136 273 136 129 174 104 7 0 0 0 0 0 0 0 0 0 0 135 171 13 33 122 122 177 171 381 44 38 0 92 35 24 52 20 12 32 29 0 0 0 0 0 1 46 78 0 0 25 89 196 22 63 30 56 70 171 182 35 37 47 6 2 0 0 0 64 0 0
0 0 0 0 0 0 0 0 0 0 0 0 0 0 0 42 241 209 53 63 182 204 296 246 159 160 43 76 0 0 0 0 0 0 0 2 3 158 63 135 120 48 444 518 149 79 88 0 1 0 0 3 6 6 0 0 0 64 44 0 0 9 9 13 0 72 0 62 107 149 222 84 74 98 177 81 167 24 1 43 2 1 0 0 0 0 0
0 0 0 0 0 0 0 0 0 0 0 0 0 0 0 152 313 257 99 59 135 299 187 206 254 79 46 0 0 0 0 0 0 0 0 0 0 0 0 64 216 450 509 184 404 542 430 190 132 83 29 113 15 10 2 0 4 90 4 9 197 56 11 43 47 45 0 3 184 289 209 42 171 18 33 73 36 0 2 1 33 3 17 8 0 0 0
0 0 0 0 0 0 0 0 0 0 0 0 0 0 0 16 95 276 360 337 283 245 307 253 214 75 157 29 40 0 0 0 0 0 0 0 0 0 0 201 237 233 285 188 348 114 267 118 74 150 0 58 177 43 19 132 9 60 56 19 146 94 0 182 118 129 23 85 294 243 467 101 135 108 2 0 7 0 0 0 0 4 0 0 0 0 0
0 0 0 0 0 0 0 0 0 0 0 0 0 0 0 0 42 233 150 45 144 388 61 28 228 199 91 39 35 10 1 0 0 0 0 0 0 0 0 0 25 337 344 314 214 109 145 75 20 60 142 240 88 97 38 39 233 154 156 177 420 26 31 100 16 1 0 404 302 260 178 258 191 70 62 133 85 13 0 0 0 34 0 0 0 0 0
0 0 0 0 0 0 0 0 0 0 0 0 0 0 0 0 167 293 5 81 206 380 338 314 194 256 6 0 1 0 0 0 0 0 0 0 0 0 0 44 4 0 84 71 266 161 168 48 24 409 60 28 299 236 183 312 148 134 64 63 261 328 711 105 104 0 124 52 336 104 135 337 251 254 133 216 186 182 47 0 0 29 11 0 0 0 0
0 0 0 0 0 0 0 0 0 0 0 0 0 0 17 20 186 56 1 30 113 439 415 322 200 134 93 165 48 16 1 0 0 0 0 0 0 0 0 3 82 102 188 122 118 346 238 232 357 385 462 507 43 130 152 140 116 98 144 469 456 672 480 316 373 278 308 279 350 416 337 239 330 266 286 223 357 220 68 293 40 1 11 18 0 0 0
0 0 0 0 0 0 0 0 0 0 0 0 0 61 324 246 100 20 0 0 166 348 233 142 18 3 4 5 57 137 147 4 0 0 1 3 10 21 16 215 241 38 171 332 609 244 659 745 286 273 456 290 107 263 97 105 52 99 726 555 632 465 477 558 545 326 413 345 112 88 302 382 220 234 209 250 344 317 225 145 202 381 245 33 30 2 0
0 0 0 0 0 0 0 0 0 0 0 0 12 368 349 178 132 0 0 0 107 148 170 68 1 1 2 12 3 56 104 52 12 38 241 236 432 299 247 273 494 318 553 718 517 857 408 336 328 503 338 472 379 140 123 47 32 91 396 373 404 420 250 449 346 485 316 304 264 255 62 227 316 176 135 123 103 129 6 176 485 529 455 25 80 85 23
0 0 0 0 0 0 0 0 0 0 0 0 24 158 146 84 1 0 0 0 58 160 217 193 37 29 54 203 307 261 230 195 65 65 673 485 742 547 584 223 560 214 199 355 975 678 403 392 233 431 268 679 208 156 141 109 89 114 414 262 438 555 342 297 334 346 311 200 232 146 214 257 199 179 199 299 239 236 64 115 450 213 222 230 20 15 98
0 0 0 0 0 0 0 0 0 0 0 0 0 0 0 0 0 0 0 0 110 335 310 164 21 11 3 360 224 302 202 292 505 188 851 511 589 293 179 576 613 302 733 73 215 93 407 386 487 476 481 383 302 261 230 225 181 670 512 649 419 457 454 488 244 217 167 176 201 140 220 251 268 276 294 307 269 216 189 293 328 364 388 29 2 8 21
0 0 0 0 0 0 0 0 0 0 0 0 200 1 0 0 0 0 0 0 21 132 78 36 22 23 86 132 64 951 268 431 547 254 440 786 637 146 493 365 508 40 373 172 1123 296 342 181 406 298 78 402 262 272 119 186 286 291 563 486 472 415 315 341 291 265 411 429 283 227 218 264 304 278 225 209 184 243 403 296 161 215 429 66 8 9 0
0 0 0 0 0 0 0 0 0 0 25 95 68 0 0 0 0 0 0 59 67 185 84 40 3 16 24 166 121 296 292 120 148 386 326 310 284 312 606 148 416 27 304 155 333 295 364 618 614 244 224 256 87 110 170 30 197 172 21 12 59 219 36 342 326 441 533 404 276 310 298 387 283 250 254 278 250 269 303 234 244 180 235 61 8 0 0
0 0 0 0 0 0 0 0 0 0 8 38 144 1 0 0 0 0 0 102 23 48 163 202 124 167 155 115 86 373 0 48 128 408 522 338 202 573 405 315 194 261 625 182 304 321 169 710 191 241 352 0 100 114 6 11 24 56 23 36 109 21 90 117 227 176 232 213 236 243 272 326 213 250 263 270 259 238 240 252 200 237 241 240 53 12 34
0 0 0 0 0 0 0 30 93 18 108 0 0 0 0 0 0 0 84 31 26 0 50 122 174 194 265 390 0 138 0 48 59 126 431 217 404 215 370 217 137 370 216 371 296 353 472 102 377 312 254 119 102 139 334 291 164 145 23 84 51 41 129 465 199 210 121 143 179 282 188 139 140 206 204 193 338 266 189 203 273 188 156 148 188 204 44
0 0 0 0 0 0 98 87 111 6 0 0 0 23 38 0 118 79 4 0 22 0 0 0 0 6 401 214 125 782 0 305 118 400 209 190 108 264 373 252 685 189 228 152 329 530 489 368 406 346 176 18 184 258 81 78 194 197 22 16 60 338 306 159 85 160 148 138 128 198 263 252 241 298 201 257 337 220 173 156 187 238 200 214 108 87 3
0 0 0 0 12 8 242 193 0 0 0 0 4 4 83 112 83 46 47 117 19 3 33 0 38 176 539 203 495 267 94 294 299 92 102 310 12 24 368 200 747 173 191 136 283 139 362 372 116 20 244 144 170 57 12 185 273 262 308 198 67 53 27 3 24 106 118 116 103 78 95 219 287 334 376 308 313 212 254 241 242 177 10 16 15 6 4
0 0 14 32 13 156 4 0 0 0 1 18 93 21 42 197 13 0 188 113 59 173 174 49 312 536 310 375 293 528 314 128 174 51 119 151 46 5 174 49 107 22 16 44 116 173 199 74 44 41 44 183 291 152 191 147 161 289 295 256 195 222 141 31 22 17 90 84 58 62 41 14 60 217 241 299 308 272 313 147 236 147 4 17 18 7 0
0 7 84 54 83 78 2 0 0 0 43 64 30 112 89 20 107 29 90 58 27 168 272 137 127 323 106 284 147 93 845 190 306 277 107 62 318 180 207 78 66 6 11 3 90 212 242 59 145 69 176 202 175 230 167 199 165 158 165 89 141 83 16 20 27 189 185 132 92 63 97 72 14 119 445 371 374 386 369 273 173 12 3 13 10 2 2
0 0 0 2 0 44 2 2 7 11 50 84 1 0 7 0 0 45 23 28 437 697 317 264 693 551 389 218 320 171 682 374 479 231 170 45 401 255 135 60 71 4 8 33 36 144 55 1 0 74 93 112 153 167 166 159 123 134 174 110 150 234 89 21 14 9 33 114 102 91 90 97 91 93 466 593 578 498 495 324 280 135 10 22 18 5 0
0 0 0 0 86 3 0 0 0 0 0 5 0 0 0 0 0 1 211 538 714 460 77 334 202 158 532 360 377 537 450 438 281 374 239 400 275 131 190 151 32 13 22 51 21 80 0 17 21 37 136 214 198 107 126 177 239 276 278 280 278 280 198 37 38 56 88 97 101 84 88 117 124 136 537 634 538 496 452 348 228 67 18 0 14 1 0
0 0 2 7 0 10 3 0 0 15 0 0 0 0 0 0 0 0 213 338 533 134 450 313 745 109 559 552 105 630 546 735 13 68 160 183 60 99 41 16 156 300 73 14 10 0 7 32 34 37 96 41 61 77 136 123 131 106 140 138 161 253 248 280 191 74 76 100 110 116 125 106 71 37 146 507 352 440 354 372 360 208 50 17 6 13 4
0 7 3 8 8 0 0 0 0 0 0 0 0 0 0 85 238 170 319 698 325 316 132 278 203 410 121 409 360 349 241 144 85 32 45 84 35 50 26 117 15 0 0 5 3 3 2 0 0 82 20 4 2 10 12 40 34 79 60 38 35 31 35 35 34 22 24 35 51 80 52 81 109 227 454 183 29 93 12 107 267 166 52 98 45 28 13
12 2 0 0 0 0 0 0 0 0 0 0 0 0 0 239 97 281 392 191 196 383 521 264 152 423 92 274 218 193 358 201 157 138 104 154 0 0 67 17 0 0 1 0 0 0 0 0 0 0 0 0 0 0 4 14 38 49 40 46 52 47 54 44 14 14 10 12 16 22 62 79 92 643 237 279 165 154 188 237 199 2 63 52 43 13 2
6 14 0 0 0 0 0 0 0 0 0 0 0 109 363 309 239 250 296 400 593 699 547 547 571 152 121 295 246 215 130 154 44 76 39 91 100 84 3 0 0 0 0 0 0 0 0 0 0 0 0 0 0 1 2 5 17 29 53 63 81 64 51 24 6 0 2 5 13 31 29 40 90 288 486 329 309 475 307 87 5 89 18 10 27 18 1
0 7 0 0 0 0 0 0 0 0 0 0 27 263 296 332 348 433 454 300 674 508 314 421 268 318 201 210 0 0 50 51 15 26 0 0 0 0 0 1 0 1 0 0 0 0 0 0 0 0 0 0 0 2 5 12 16 32 52 56 54 44 15 4 2 7 7 21 42 59 77 155 274 456 242 40 243 374 221 24 7 40 5 2 14 4 0
2 0 0 0 0 0 0 0 0 0 0 18 339 436 715 372 408 390 477 334 306 526 132 160 123 0 0 124 45 22 50 2 0 0 0 0 0 0 0 0 0 0 0 0 0 0 0 0 0 0 0 0 2 4 4 6 30 86 60 49 35 29 13 6 21 82 77 43 40 79 130 222 260 32 9 29 113 112 278 183 21 184 50 2 10 4 0
0 0 0 0 0 0 0 0 0 1 62 43 406 383 243 286 403 336 405 415 531 455 410 282 58 0 75 0 0 0 0 0 0 0 0 0 0 0 0 0 0 0 0 0 0 0 0 0 0 0 0 0 8 6 8 10 29 100 20 25 18 20 10 4 63 89 80 55 96 56 91 143 142 118 234 70 7 35 78 111 22 34 5 6 4 2 0
0 0 0 0 0 0 0 0 0 1 0 177 304 402 261 341 151 473 194 635 267 358 159 163 77 5 0 0 0 0 0 0 0 0 0 0 0 0 0 0 0 0 0 0 0 0 0 0 0 0 1 2 6 6 4 8 15 8 10 4 8 4 2 53 93 108 135 121 203 199 222 205 190 262 195 280 165 143 47 66 5 48 9 15 13 4 0
0 0 0 0 0 0 0 0 0 1 218 236 522 456 416 381 354 629 721 608 297 116 182 244 100 2 0 0 0 0 0 0 0 0 0 0 0 0 0 0 0 0 0 0 0 0 0 0 3 2 1 12 9 1 3 7 4 3 0 0 0 0 4 19 29 83 92 109 54 91 9 14 29 250 251 131 45 8 15 23 57 32 11 36 19 8 2
Wind_Speed
nan nan nan nan nan nan nan nan nan nan nan nan nan nan nan nan nan 8 nan nan nan nan nan nan 8 nan nan nan nan nan nan nan nan nan nan nan nan nan nan nan nan nan nan nan nan nan nan nan nan nan nan nan nan nan nan nan nan nan nan nan nan nan nan nan nan nan nan nan nan nan nan nan nan nan nan nan nan nan nan nan nan 28 25 31 31 36 31
nan nan nan nan nan nan nan nan nan nan nan nan nan nan nan nan nan nan nan nan nan nan nan nan nan nan nan nan nan nan nan nan nan nan nan nan nan nan nan nan nan nan nan nan nan nan nan nan nan nan nan nan nan nan nan nan nan nan nan nan nan nan nan nan nan nan nan nan nan nan nan nan nan nan nan nan nan nan nan nan 32 29 29 31 32 33 32
nan nan nan nan nan nan nan nan nan nan nan nan nan nan nan nan 4 6 nan nan nan nan nan nan nan nan nan nan nan nan nan nan nan nan nan nan nan nan nan nan nan nan nan nan nan nan 13 nan nan nan nan nan nan nan nan nan nan nan nan 34 35 nan nan nan nan nan nan nan nan nan nan nan nan nan nan nan nan nan nan nan nan 34 33 34 33 37 35
nan nan nan nan nan nan nan nan nan nan nan nan nan 5 nan 4 nan nan nan nan nan nan nan nan nan nan nan nan nan nan nan nan nan nan nan nan nan nan nan nan nan nan nan nan nan nan nan nan 5 9 nan nan nan nan nan nan nan 34 38 37 nan nan nan nan 29 nan nan nan nan nan nan nan nan nan nan nan nan nan nan nan nan 35 37 40 34 37 36
nan nan nan nan nan nan nan nan nan nan nan nan nan nan 4 4 4 nan nan nan nan nan nan nan nan nan nan nan nan nan nan nan nan nan nan nan nan nan nan nan 13 nan nan nan nan 21 nan nan nan 11 nan nan nan nan nan nan nan 39 35 nan nan nan nan nan nan nan nan nan nan nan nan nan nan nan nan nan nan nan nan nan 35 35 45 43 39 38 39
nan nan nan nan nan nan nan nan nan nan nan nan 10 8 5 nan nan nan nan nan nan nan nan nan nan nan nan nan nan nan nan nan nan nan nan nan nan nan nan nan nan nan nan nan 17 16 16 13 13 nan nan nan nan nan nan nan nan nan nan nan nan nan nan nan nan nan nan nan nan nan nan nan nan nan nan nan nan nan nan nan nan nan 39 39 38 37 40
nan nan nan nan nan nan nan nan nan nan nan nan 9 9 7 nan nan nan nan nan nan nan nan nan nan nan nan nan nan nan nan nan nan nan nan nan nan nan nan nan nan nan 12 14 12 12 11 12 10 8 nan nan nan nan nan nan nan nan nan nan nan nan nan nan nan nan nan nan nan nan nan nan nan nan nan nan nan nan nan nan nan 42 42 45 42 42 42
nan nan nan nan nan nan nan nan nan nan nan 16 10 15 nan nan 9 6 8 nan nan nan nan nan nan nan nan nan nan nan nan nan nan nan nan nan nan nan nan nan nan nan 11 10 11 nan 13 12 11 11 nan nan nan nan nan nan nan nan nan nan nan nan nan nan nan nan nan nan nan nan nan nan nan nan nan nan nan nan nan 57 59 54 49 47 49 50 49
nan nan nan nan nan nan nan nan nan nan nan 16 18 17 nan nan 9 5 3 4 nan nan nan nan nan nan nan nan nan nan nan nan nan nan nan nan nan nan nan nan nan nan nan nan nan nan nan nan nan nan nan nan nan nan nan nan nan nan nan nan nan nan nan nan nan nan nan nan nan nan nan nan nan nan nan nan nan nan nan 43 46 51 49 51 52 52 49
nan nan nan nan nan nan nan nan nan nan nan 16 17 20 nan nan nan 8 7 4 6 nan nan nan nan nan nan nan nan nan nan nan nan nan nan nan nan nan nan nan nan nan nan nan nan nan nan nan nan nan nan nan nan nan nan nan nan nan nan nan nan nan nan nan nan nan nan nan nan nan nan nan nan nan nan nan nan nan nan 48 54 50 48 50 48 49 48
nan nan nan nan nan nan nan nan nan nan nan nan 18 17 nan nan 12 11 10 7 5 4 nan nan nan nan nan nan nan nan nan nan nan nan nan nan nan nan nan nan nan nan nan nan nan nan nan nan nan nan nan nan nan nan nan nan nan nan nan nan nan nan nan nan nan nan nan nan nan nan nan nan nan nan nan nan nan nan nan 46 50 52 52 46 45 50 53
nan nan nan nan nan nan nan nan nan nan nan nan nan 14 nan nan 10 10 10 10 5 8 nan nan nan nan nan nan nan nan nan nan nan nan nan nan nan nan nan nan nan nan nan nan nan nan nan nan nan nan nan nan nan nan nan nan nan nan nan nan nan nan nan nan nan nan nan nan nan nan nan nan nan nan nan nan 43 51 53 49 51 53 54 54 54 53 56
nan nan nan nan nan nan nan nan nan nan nan nan nan 15 19 17 12 12 11 9 8 7 nan nan nan nan nan nan nan nan nan nan nan nan nan nan nan nan nan nan nan nan nan nan nan nan nan nan nan nan nan nan nan nan nan nan nan nan nan nan nan nan nan nan nan nan nan nan nan nan nan nan nan nan nan nan nan 42 45 48 45 46 46 49 53 53 53
nan nan nan nan nan nan nan nan nan nan nan nan 17 16 18 20 18 13 14 11 7 8 nan nan nan nan nan nan nan nan nan nan nan nan nan nan nan nan nan nan nan nan nan nan nan nan nan nan nan nan nan nan nan nan nan nan nan nan nan nan nan nan nan nan nan nan nan nan nan nan nan nan nan nan nan nan nan nan nan 40 42 44 41 42 44 47 51
nan nan nan nan nan nan nan nan nan nan nan nan nan 16 20 19 17 13 10 9 9 7 nan nan nan nan nan nan nan nan nan nan nan nan nan nan nan nan nan nan nan nan nan nan nan nan nan nan nan nan 6 nan nan nan nan nan nan nan nan nan nan nan nan 17 nan nan nan nan nan 27 nan nan nan nan nan nan nan nan nan 44 42 41 42 38 39 39 44
nan nan nan nan nan nan nan nan nan nan nan nan nan 19 16 18 16 13 11 9 10 9 nan nan nan nan nan nan nan nan 9 6 nan nan nan nan nan nan nan nan nan nan nan nan nan nan 1 3 nan nan nan nan nan nan nan nan nan nan nan nan nan nan nan nan nan nan nan nan nan nan nan nan nan nan nan nan nan nan nan nan 40 39 41 39 40 43 44
nan nan nan nan nan nan nan nan nan nan nan nan nan nan 15 19 19 15 12 11 10 6 5 nan nan nan nan nan nan nan nan nan nan nan nan nan nan nan nan nan nan nan nan nan nan nan nan nan nan nan nan nan nan nan nan nan nan nan nan nan nan nan nan nan nan nan nan nan nan nan 30 nan 22 nan nan nan nan nan nan nan nan 36 40 37 42 43 45
nan nan nan nan nan nan nan nan nan nan nan nan nan nan 14 16 18 15 12 12 11 7 nan nan nan nan 10 nan 9 nan nan nan nan nan nan nan nan nan nan nan nan nan nan nan nan nan 2 nan nan nan nan nan nan nan nan nan nan nan nan nan nan nan nan nan nan nan nan nan nan nan 28 26 nan nan nan nan nan nan nan nan 31 34 42 43 45 47 47
nan nan nan nan nan nan nan nan nan nan nan nan nan nan 13 16 17 17 13 13 nan nan nan nan nan nan nan nan nan nan nan nan nan nan nan 8 6 nan nan nan nan nan nan nan nan nan nan nan 6 nan nan nan nan nan nan nan nan nan nan nan nan nan nan nan nan nan nan nan nan nan 28 28 nan nan nan nan nan nan nan 27 24 31 42 43 42 43 42
nan nan nan nan nan nan nan nan nan nan nan nan nan nan 11 11 16 18 nan nan nan nan nan nan nan nan nan nan nan nan nan nan nan nan nan 5 nan nan nan nan nan nan nan nan nan 6 nan nan 5 nan nan nan nan nan nan nan nan nan nan nan nan nan nan nan nan nan nan nan nan nan nan 30 nan nan nan nan nan 28 28 28 nan 34 35 35 39 nan nan
nan nan nan nan nan nan nan nan nan nan nan nan nan nan 15 14 17 19 17 14 nan nan nan nan nan nan nan nan nan nan nan nan nan nan 7 9 10 nan nan 9 nan nan 10 10 nan nan nan nan nan nan nan nan nan nan nan nan nan nan nan nan nan nan nan nan nan nan nan nan nan nan 24 nan nan nan nan 31 33 30 31 33 34 33 33 34 38 nan nan
nan nan nan nan nan nan nan nan nan nan nan nan nan nan 11 15 19 19 16 12 10 7 nan nan nan nan nan nan nan nan nan nan nan nan nan 9 10 nan nan nan 7 9 11 nan nan nan 15 nan nan nan nan nan nan nan 12 nan nan nan nan nan nan nan nan 15 15 nan nan nan nan nan nan 25 nan 30 29 30 32 34 37 nan nan 37 37 36 39 nan nan
nan nan nan nan nan nan nan nan nan nan nan nan nan nan nan nan 15 17 16 14 11 7 5 4 2 nan nan nan nan nan nan nan nan nan nan nan 10 10 nan nan 11 12 12 13 16 nan nan nan nan nan nan nan nan nan nan nan nan nan nan nan nan nan nan nan nan nan nan nan 24 nan nan nan nan nan 29 30 nan nan nan nan nan nan nan nan nan nan nan
nan nan nan nan nan nan nan nan nan nan nan nan nan nan nan nan 11 15 nan nan 14 13 9 5 5 4 nan nan nan nan nan nan nan nan nan nan nan 11 nan 14 11 nan 15 14 17 nan nan nan nan nan nan nan nan nan nan nan nan nan nan nan nan nan nan nan nan nan nan nan 25 27 27 nan nan nan 32 nan 31 nan nan nan nan nan nan nan nan nan nan
nan nan nan nan nan nan nan nan nan nan nan nan nan nan nan 8 11 17 nan nan 17 17 12 11 7 nan nan nan nan nan nan nan nan nan nan nan nan nan nan nan 15 17 15 15 17 18 17 16 17 nan nan 15 nan nan nan nan nan nan nan nan 23 nan nan nan nan nan nan nan 31 30 31 nan 32 nan nan nan nan nan nan nan nan nan nan nan nan nan nan
nan nan nan nan nan nan nan nan nan nan nan nan nan nan nan nan nan 12 13 13 13 12 12 11 9 nan 10 nan nan nan nan nan nan nan nan nan nan nan nan 14 17 18 18 16 20 18 19 17 nan 17 nan nan 17 nan nan 22 nan nan nan nan 24 nan nan 26 27 27 nan nan 36 31 32 33 33 36 nan nan nan nan nan nan nan nan nan nan nan nan nan
nan nan nan nan nan nan nan nan nan nan nan nan nan nan nan nan nan 12 15 nan 15 13 nan nan 12 12 nan nan nan nan nan nan nan nan nan nan nan nan nan nan nan 19 18 16 17 17 19 nan nan nan 18 17 nan nan nan nan 24 24 23 25 28 nan nan 30 nan nan nan 30 31 33 35 35 36 nan nan 39 nan nan nan nan nan nan nan nan nan nan nan
nan nan nan nan nan nan nan nan nan nan nan nan nan nan nan nan 7 11 nan nan 14 15 14 12 11 11 nan nan nan nan nan nan nan nan nan nan nan nan nan nan nan nan nan nan 16 19 18 nan nan 20 nan nan 21 22 24 24 26 25 nan nan 30 30 30 33 32 nan 30 nan 32 33 33 31 35 36 35 37 41 39 nan nan nan nan nan nan nan nan nan
nan nan nan nan nan nan nan nan nan nan nan nan nan nan nan nan 4 nan nan nan 12 12 11 9 7 8 nan 14 nan nan nan nan nan nan nan nan nan nan nan nan nan 17 17 19 19 19 19 18 21 21 22 22 nan 25 27 26 27 nan 27 31 32 32 33 34 34 35 33 33 35 33 33 32 34 35 36 36 38 40 nan 39 nan nan nan nan nan nan nan
nan nan nan nan nan nan nan nan nan nan nan nan nan nan 8 10 nan nan nan nan 12 12 11 12 nan nan nan nan nan 10 9 nan nan nan nan nan nan nan nan 18 18 nan 19 19 22 19 20 22 22 22 23 26 27 28 nan 28 nan nan 32 33 34 32 32 34 36 36 36 37 35 nan 30 31 34 34 34 36 36 40 40 39 42 42 40 nan nan nan nan
nan nan nan nan nan nan nan nan nan nan nan nan nan 9 6 6 10 nan nan nan 11 10 9 nan nan nan nan nan nan nan 11 nan nan nan 15 17 19 16 17 17 19 20 19 19 21 22 23 22 25 24 26 29 30 31 28 nan nan nan 30 31 32 33 34 35 34 35 36 36 37 35 nan 33 33 35 34 33 34 35 nan 35 39 42 41 nan nan nan nan
nan nan nan nan nan nan nan nan nan nan nan nan nan 10 11 nan nan nan nan nan nan 8 8 8 nan nan nan 13 13 16 14 10 nan nan 16 12 17 14 18 18 18 18 18 20 24 24 23 24 25 27 29 31 33 30 29 27 nan 24 31 32 34 34 35 35 34 36 36 36 36 36 35 33 34 35 37 40 40 40 nan 38 40 40 42 42 nan nan nan
nan nan nan nan nan nan nan nan nan nan nan nan nan nan nan nan nan nan nan nan 7 7 8 9 nan nan nan 14 13 16 13 12 16 15 15 13 16 16 17 19 18 18 20 nan 24 nan 23 26 29 29 30 32 31 30 28 25 24 29 32 32 34 35 33 35 36 36 35 35 35 35 35 35 35 34 36 36 37 38 39 39 37 41 43 nan nan nan nan
nan nan nan nan nan nan nan nan nan nan nan nan 9 nan nan nan nan nan nan nan nan 7 nan nan nan nan nan 15 nan 13 11 13 14 15 14 15 16 17 18 18 19 nan 20 22 24 25 25 27 28 30 nan 30 31 30 26 25 27 31 32 33 34 34 34 35 35 34 34 34 34 33 32 30 31 31 31 32 33 36 37 38 40 39 42 nan nan nan nan
nan nan nan nan nan nan nan nan nan nan nan nan nan nan nan nan nan nan nan nan nan 9 nan nan nan nan nan 14 12 12 11 12 13 15 14 16 15 17 18 18 19 nan 21 23 23 26 27 28 31 31 30 34 nan 29 27 nan 28 30 nan nan nan 28 nan 34 35 33 32 33 33 31 30 30 30 29 30 30 31 32 34 38 38 39 39 nan nan nan nan
nan nan nan nan nan nan nan nan nan nan nan nan 11 nan nan nan nan nan nan 5 nan nan 9 11 12 10 11 10 nan 13 nan nan 11 15 15 17 17 18 19 22 20 22 23 24 24 26 27 30 30 28 33 nan nan 31 nan nan nan nan nan nan 29 nan nan 32 31 31 31 32 31 31 30 31 31 30 31 31 32 32 34 34 36 36 37 39 nan nan nan
nan nan nan nan nan nan nan nan nan nan 13 nan nan nan nan nan nan nan nan nan nan nan nan 10 9 9 10 12 nan 13 nan nan nan 15 16 16 18 21 23 24 22 23 23 24 26 25 28 28 29 28 31 29 28 28 31 31 32 33 nan nan nan nan 23 26 27 28 31 32 34 36 35 33 31 30 31 32 35 37 36 34 34 33 34 36 38 40 nan
nan nan nan nan nan nan nan nan 13 nan nan nan nan nan nan nan 6 nan nan nan nan nan nan nan nan nan 11 11 11 13 nan 14 16 18 17 18 18 23 24 24 24 23 23 27 28 29 33 30 30 31 35 nan 32 34 nan nan 33 35 nan nan nan 28 28 30 nan 32 32 32 34 34 34 34 33 33 32 32 34 33 34 35 35 34 36 37 38 nan nan
nan nan nan nan nan nan 11 12 nan nan nan nan nan nan nan 6 nan nan nan 10 nan nan nan nan nan 10 12 12 12 13 nan 15 17 nan 18 21 nan nan 26 24 26 25 26 27 29 28 29 30 31 nan 30 31 32 nan nan 33 35 36 36 36 nan nan nan nan nan 37 36 33 32 nan nan 32 34 35 35 33 33 33 35 34 36 38 nan nan nan nan nan
nan nan nan nan nan 10 nan nan nan nan nan nan nan nan nan 8 nan nan 11 9 nan 9 11 nan 10 11 9 11 15 14 17 18 18 nan 18 20 nan nan 27 nan 28 nan nan nan 29 30 28 nan nan nan nan 32 34 34 34 35 37 37 37 37 37 36 36 nan nan nan nan nan nan nan nan nan nan 34 34 34 33 32 35 34 37 37 nan nan nan nan nan
nan nan nan nan nan nan nan nan nan nan nan nan nan 5 nan nan 8 nan nan nan nan 10 7 11 11 11 11 14 15 nan 16 16 17 18 20 nan 24 25 26 nan nan nan nan nan nan 29 30 nan 35 nan 35 34 34 35 37 38 38 39 38 nan 37 nan nan nan nan 25 26 26 nan nan nan nan nan 30 34 34 34 33 33 33 34 nan nan nan nan nan nan
nan nan nan nan nan nan nan nan nan nan nan nan nan nan nan nan nan nan nan nan 8 9 6 7 11 15 14 14 16 17 18 18 18 20 22 nan 26 25 26 nan nan nan nan nan nan 32 nan nan nan nan nan 35 36 37 37 37 37 36 36 35 33 30 nan nan nan nan nan 26 26 nan nan nan nan nan 31 34 34 33 33 33 34 33 nan nan nan nan nan
nan nan nan nan nan nan nan nan nan nan nan nan nan nan nan nan nan nan 9 8 9 10 nan 6 9 13 16 14 15 15 17 20 21 23 25 26 27 27 26 27 nan nan nan nan nan nan nan nan nan nan 35 35 36 35 35 35 34 34 33 30 28 27 26 nan nan nan nan nan 29 nan nan 28 29 29 32 35 34 33 34 34 34 nan nan nan nan nan nan
nan nan nan nan nan nan nan nan nan nan nan nan nan nan nan nan nan nan 6 7 9 12 13 12 12 14 14 15 16 17 19 21 nan nan 25 27 nan nan nan nan 29 31 nan nan nan nan nan nan nan nan nan nan nan nan 33 34 33 30 28 27 26 27 28 29 30 nan nan 35 35 33 31 29 nan nan 28 32 33 34 38 39 39 38 nan nan nan nan nan
nan nan nan nan nan nan nan nan nan nan nan nan nan nan nan nan 9 7 8 8 8 11 12 12 15 16 15 17 16 18 19 23 nan nan nan nan nan nan nan 29 nan nan nan nan nan nan nan nan nan nan nan nan nan nan nan nan nan nan nan nan nan nan nan nan nan nan nan nan nan nan nan nan 28 29 36 41 nan nan nan 37 37 37 nan nan nan nan nan
nan nan nan nan nan nan nan nan nan nan nan nan nan nan nan 11 nan 10 10 9 10 12 12 13 13 13 nan 18 17 22 23 24 26 27 27 28 nan nan nan nan nan nan nan nan nan nan nan nan nan nan nan nan nan nan nan nan nan nan nan nan nan nan nan nan nan nan nan nan nan nan nan nan nan 33 33 33 34 31 31 34 35 nan nan nan nan nan nan
nan nan nan nan nan nan nan nan nan nan nan nan nan 8 12 12 11 9 9 11 12 13 14 12 13 16 16 20 21 22 23 25 nan nan nan nan nan nan nan nan nan nan nan nan nan nan nan nan nan nan nan nan nan nan nan nan nan nan nan nan nan nan nan nan nan nan nan nan nan nan nan nan nan 36 35 32 33 37 39 nan nan nan nan nan nan nan nan
nan nan nan nan nan nan nan nan nan nan nan nan nan 12 11 13 12 10 10 11 13 14 14 15 16 19 18 20 nan nan nan nan nan nan nan nan nan nan nan nan nan nan nan nan nan nan nan nan nan nan nan nan nan nan nan nan nan nan nan nan nan nan nan nan nan nan nan nan nan nan nan 35 39 42 39 nan 30 33 37 nan nan nan nan nan nan nan nan
nan nan nan nan nan nan nan nan nan nan nan nan 15 10 12 13 13 11 13 12 13 14 14 13 16 nan nan 21 nan nan nan nan nan nan nan nan nan nan nan nan nan nan nan nan nan nan nan nan nan nan nan nan nan nan nan nan nan nan nan nan nan nan nan nan nan nan nan nan nan nan 24 27 33 nan nan nan 30 30 32 33 nan 30 nan nan nan nan nan
nan nan nan nan nan nan nan nan nan nan nan nan 11 13 12 13 13 11 11 12 13 13 14 16 nan nan nan nan nan nan nan nan nan nan nan nan nan nan nan nan nan nan nan nan nan nan nan nan nan nan nan nan nan nan nan nan nan 18 nan nan nan nan nan nan nan nan nan nan nan nan nan 18 19 25 30 nan nan nan nan 30 nan nan nan nan nan nan nan
nan nan nan nan nan nan nan nan nan nan nan 13 12 12 11 11 11 12 12 14 13 14 16 16 nan nan nan nan nan nan nan nan nan nan nan nan nan nan nan nan nan nan nan nan nan nan nan nan nan nan nan nan nan nan nan nan nan nan nan nan nan nan nan nan nan 15 14 14 12 7 8 8 15 21 25 26 25 26 nan nan nan nan nan nan nan nan nan
nan nan nan nan nan nan nan nan nan nan 14 12 12 12 10 11 11 11 11 12 14 12 14 15 nan nan nan nan nan nan nan nan nan nan nan nan nan nan nan nan nan nan nan nan nan nan nan nan nan nan nan nan nan nan nan nan nan nan nan nan nan nan nan nan nan nan nan 10 nan nan nan nan nan 12 16 20 nan nan nan nan nan nan nan nan nan nan nan
Wind_Direction
nan nan nan nan nan nan nan nan nan nan nan nan nan nan nan nan nan 94 nan nan nan nan nan nan 44 nan nan nan nan nan nan nan nan nan nan nan nan nan nan nan nan nan nan nan nan nan nan nan nan nan nan nan nan nan nan nan nan nan nan nan nan nan nan nan nan nan nan nan nan nan nan nan nan nan nan nan nan nan nan nan nan 207 226 237 233 235 233
nan nan nan nan nan nan nan nan nan nan nan nan nan nan nan nan nan nan nan nan nan nan nan nan nan nan nan nan nan nan nan nan nan nan nan nan nan nan nan nan nan nan nan nan nan nan nan nan nan nan nan nan nan nan nan nan nan nan nan nan nan nan nan nan nan nan nan nan nan nan nan nan nan nan nan nan nan nan nan nan 194 212 238 244 235 248 241
nan nan nan nan nan nan nan nan nan nan nan nan nan nan nan nan 14 14 nan nan nan nan nan nan nan nan nan nan nan nan nan nan nan nan nan nan nan nan nan nan nan nan nan nan nan nan 233 nan nan nan nan nan nan nan nan nan nan nan nan 194 194 nan nan nan nan nan nan nan nan nan nan nan nan nan nan nan nan nan nan nan nan 227 235 237 234 234 237
nan nan nan nan nan nan nan nan nan nan nan nan nan 259 nan 271 nan nan nan nan nan nan nan nan nan nan nan nan nan nan nan nan nan nan nan nan nan nan nan nan nan nan nan nan nan nan nan nan 169 168 nan nan nan nan nan nan nan 199 193 192 nan nan nan nan 198 nan nan nan nan nan nan nan nan nan nan nan nan nan nan nan nan 242 245 238 231 248 247
nan nan nan nan nan nan nan nan nan nan nan nan nan nan 283 269 356 nan nan nan nan nan nan nan nan nan nan nan nan nan nan nan nan nan nan nan nan nan nan nan 231 nan nan nan nan 220 nan nan nan 165 nan nan nan nan nan nan nan 193 197 nan nan nan nan nan nan nan nan nan nan nan nan nan nan nan nan nan nan nan nan nan 235 248 240 232 232 247 250
nan nan nan nan nan nan nan nan nan nan nan nan 235 223 268 nan nan nan nan nan nan nan nan nan nan nan nan nan nan nan nan nan nan nan nan nan nan nan nan nan nan nan nan nan 220 224 241 217 220 nan nan nan nan nan nan nan nan nan nan nan nan nan nan nan nan nan nan nan nan nan nan nan nan nan nan nan nan nan nan nan nan nan 238 241 247 242 247
nan nan nan nan nan nan nan nan nan nan nan nan 234 234 221 nan nan nan nan nan nan nan nan nan nan nan nan nan nan nan nan nan nan nan nan nan nan nan nan nan nan nan 247 242 238 217 229 218 227 228 nan nan nan nan nan nan nan nan nan nan nan nan nan nan nan nan nan nan nan nan nan nan nan nan nan nan nan nan nan nan nan 231 233 243 242 238 241
nan nan nan nan nan nan nan nan nan nan nan 192 233 230 nan nan 213 207 181 nan nan nan nan nan nan nan nan nan nan nan nan nan nan nan nan nan nan nan nan nan nan nan 229 246 251 nan 236 235 229 216 nan nan nan nan nan nan nan nan nan nan nan nan nan nan nan nan nan nan nan nan nan nan nan nan nan nan nan nan nan 222 221 229 234 239 237 237 236
nan nan nan nan nan nan nan nan nan nan nan 224 211 224 nan nan 219 218 169 185 nan nan nan nan nan nan nan nan nan nan nan nan nan nan nan nan nan nan nan nan nan nan nan nan nan nan nan nan nan nan nan nan nan nan nan nan nan nan nan nan nan nan nan nan nan nan nan nan nan nan nan nan nan nan nan nan nan nan nan 224 229 228 224 231 235 234 235
nan nan nan nan nan nan nan nan nan nan nan 223 209 216 nan nan nan 213 216 219 225 nan nan nan nan nan nan nan nan nan nan nan nan nan nan nan nan nan nan nan nan nan nan nan nan nan nan nan nan nan nan nan nan nan nan nan nan nan nan nan nan nan nan nan nan nan nan nan nan nan nan nan nan nan nan nan nan nan nan 226 225 227 232 234 232 230 229
nan nan nan nan nan nan nan nan nan nan nan nan 211 211 nan nan 204 206 220 208 211 242 nan nan nan nan nan nan nan nan nan nan nan nan nan nan nan nan nan nan nan nan nan nan nan nan nan nan nan nan nan nan nan nan nan nan nan nan nan nan nan nan nan nan nan nan nan nan nan nan nan nan nan nan nan nan nan nan nan 223 227 223 225 230 233 230 232
nan nan nan nan nan nan nan nan nan nan nan nan nan 207 nan nan 215 225 222 215 219 192 nan nan nan nan nan nan nan nan nan nan nan nan nan nan nan nan nan nan nan nan nan nan nan nan nan nan nan nan nan nan nan nan nan nan nan nan nan nan nan nan nan nan nan nan nan nan nan nan nan nan nan nan nan nan 221 225 229 229 232 236 236 237 236 233 235
nan nan nan nan nan nan nan nan nan nan nan nan nan 211 211 212 224 227 225 230 240 193 nan nan nan nan nan nan nan nan nan nan nan nan nan nan nan nan nan nan nan nan nan nan nan nan nan nan nan nan nan nan nan nan nan nan nan nan nan nan nan nan nan nan nan nan nan nan nan nan nan nan nan nan nan nan nan 227 230 232 230 236 245 246 242 234 229
nan nan nan nan nan nan nan nan nan nan nan nan 210 211 215 216 222 224 229 230 223 193 nan nan nan nan nan nan nan nan nan nan nan nan nan nan nan nan nan nan nan nan nan nan nan nan nan nan nan nan nan nan nan nan nan nan nan nan nan nan nan nan nan nan nan nan nan nan nan nan nan nan nan nan nan nan nan nan nan 236 233 239 244 246 248 247 244
nan nan nan nan nan nan nan nan nan nan nan nan nan 211 221 219 225 230 224 229 216 195 nan nan nan nan nan nan nan nan nan nan nan nan nan nan nan nan nan nan nan nan nan nan nan nan nan nan nan nan 215 nan nan nan nan nan nan nan nan nan nan nan nan 218 nan nan nan nan nan 229 nan nan nan nan nan nan nan nan nan 239 236 237 248 250 254 252 249
nan nan nan nan nan nan nan nan nan nan nan nan nan 214 220 225 223 231 234 229 218 224 nan nan nan nan nan nan nan nan 238 247 nan nan nan nan nan nan nan nan nan nan nan nan nan nan 202 249 nan nan nan nan nan nan nan nan nan nan nan nan nan nan nan nan nan nan nan nan nan nan nan nan nan nan nan nan nan nan nan nan 238 238 250 249 251 244 245
nan nan nan nan nan nan nan nan nan nan nan nan nan nan 220 223 224 223 229 230 225 223 155 nan nan nan nan nan nan nan nan nan nan nan nan nan nan nan nan nan nan nan nan nan nan nan nan nan nan nan nan nan nan nan nan nan nan nan nan nan nan nan nan nan nan nan nan nan nan nan 238 nan 235 nan nan nan nan nan nan nan nan 242 248 248 249 248 244
nan nan nan nan nan nan nan nan nan nan nan nan nan nan 215 218 225 217 232 230 221 218 nan nan nan nan 242 nan 251 nan nan nan nan nan nan nan nan nan nan nan nan nan nan nan nan nan 256 nan nan nan nan nan nan nan nan nan nan nan nan nan nan nan nan nan nan nan nan nan nan nan 238 239 nan nan nan nan nan nan nan nan 240 236 244 242 243 246 246
nan nan nan nan nan nan nan nan nan nan nan nan nan nan 232 220 223 225 229 228 nan nan nan nan nan nan nan nan nan nan nan nan nan nan nan 295 283 nan nan nan nan nan nan nan nan nan nan nan 252 nan nan nan nan nan nan nan nan nan nan nan nan nan nan nan nan nan nan nan nan nan 243 243 nan nan nan nan nan nan nan 245 243 242 242 238 240 249 251
nan nan nan nan nan nan nan nan nan nan nan nan nan nan 205 200 227 230 nan nan nan nan nan nan nan nan nan nan nan nan nan nan nan nan nan 277 nan nan nan nan nan nan nan nan nan 252 nan nan 280 nan nan nan nan nan nan nan nan nan nan nan nan nan nan nan nan nan nan nan nan nan nan 247 nan nan nan nan nan 248 247 246 nan 243 249 247 241 nan nan
nan nan nan nan nan nan nan nan nan nan nan nan nan nan 215 224 231 230 226 229 nan nan nan nan nan nan nan nan nan nan nan nan nan nan 250 269 273 nan nan 273 nan nan 275 268 nan nan nan nan nan nan nan nan nan nan nan nan nan nan nan nan nan nan nan nan nan nan nan nan nan nan 248 nan nan nan nan 250 254 257 253 251 247 244 247 248 247 nan nan
nan nan nan nan nan nan nan nan nan nan nan nan nan nan 227 217 215 219 210 225 226 227 nan nan nan nan nan nan nan nan nan nan nan nan nan 254 282 nan nan nan 277 265 261 nan nan nan 252 nan nan nan nan nan nan nan 262 nan nan nan nan nan nan nan nan 268 266 nan nan nan nan nan nan 248 nan 256 255 255 253 250 252 nan nan 251 247 246 248 nan nan
nan nan nan nan nan nan nan nan nan nan nan nan nan nan nan nan 210 205 203 212 221 214 197 185 198 nan nan nan nan nan nan nan nan nan nan nan 262 274 nan nan 260 252 259 260 261 nan nan nan nan nan nan nan nan nan nan nan nan nan nan nan nan nan nan nan nan nan nan nan 271 nan nan nan nan nan 253 253 nan nan nan nan nan nan nan nan nan nan nan
nan nan nan nan nan nan nan nan nan nan nan nan nan nan nan nan 204 208 nan nan 221 206 204 231 260 249 nan nan nan nan nan nan nan nan nan nan nan 268 nan 266 267 nan 255 253 259 nan nan nan nan nan nan nan nan nan nan nan nan nan nan nan nan nan nan nan nan nan nan nan 273 273 270 nan nan nan 254 nan 253 nan nan nan nan nan nan nan nan nan nan
nan nan nan nan nan nan nan nan nan nan nan nan nan nan nan 215 222 219 nan nan 218 223 219 211 210 nan nan nan nan nan nan nan nan nan nan nan nan nan nan nan 270 272 271 264 260 253 259 258 259 nan nan 266 nan nan nan nan nan nan nan nan 267 nan nan nan nan nan nan nan 262 255 266 nan 266 nan nan nan nan nan nan nan nan nan nan nan nan nan nan
nan nan nan nan nan nan nan nan nan nan nan nan nan nan nan nan nan 203 220 225 225 230 229 234 229 nan 210 nan nan nan nan nan nan nan nan nan nan nan nan 278 275 270 260 257 256 262 261 258 nan 261 nan nan 257 nan nan 278 nan nan nan nan 277 nan nan 269 263 261 nan nan 257 252 261 270 269 265 nan nan nan nan nan nan nan nan nan nan nan nan nan
nan nan nan nan nan nan nan nan nan nan nan nan nan nan nan nan nan 210 223 nan 219 241 nan nan 234 229 nan nan nan nan nan nan nan nan nan nan nan nan nan nan nan 276 275 266 269 267 268 nan nan nan 261 264 nan nan nan nan 281 278 275 277 279 nan nan 269 nan nan nan 262 262 262 267 268 259 nan nan 250 nan nan nan nan nan nan nan nan nan nan nan
nan nan nan nan nan nan nan nan nan nan nan nan nan nan nan nan 206 222 nan nan 229 231 230 231 232 228 nan nan nan nan nan nan nan nan nan nan nan nan nan nan nan nan nan nan 269 271 270 nan nan 265 nan nan 273 279 283 280 283 283 nan nan 276 277 275 274 277 nan 277 nan 264 262 265 266 263 255 251 255 255 253 nan nan nan nan nan nan nan nan nan
nan nan nan nan nan nan nan nan nan nan nan nan nan nan nan nan 195 nan nan nan 235 228 232 236 244 254 nan 252 nan nan nan nan nan nan nan nan nan nan nan nan nan 273 271 271 269 267 268 265 263 265 268 276 nan 287 284 285 284 nan 278 274 272 273 277 278 275 272 271 271 266 262 262 261 257 252 253 254 255 256 nan 254 nan nan nan nan nan nan nan
nan nan nan nan nan nan nan nan nan nan nan nan nan nan 231 253 nan nan nan nan 226 232 235 235 nan nan nan nan nan 282 279 nan nan nan nan nan nan nan nan 291 286 nan 275 276 279 279 274 269 265 263 271 279 288 288 nan 285 nan nan 278 279 276 273 272 270 270 271 268 271 271 nan 261 257 257 260 261 258 257 256 255 256 256 250 250 nan nan nan nan
nan nan nan nan nan nan nan nan nan nan nan nan nan 216 230 256 247 nan nan nan 227 233 239 nan nan nan nan nan nan nan 307 nan nan nan 279 271 267 266 267 272 275 274 276 275 279 279 277 274 270 271 277 289 293 293 290 nan nan nan 279 277 277 277 277 276 272 270 269 270 273 273 nan 261 259 258 260 260 258 257 nan 259 259 259 257 nan nan nan nan
nan nan nan nan nan nan nan nan nan nan nan nan nan 216 231 nan nan nan nan nan nan 247 255 249 nan nan nan 279 276 265 255 274 nan nan 282 280 281 279 283 278 282 278 280 283 289 288 288 285 282 281 285 290 290 286 286 290 nan 280 278 278 281 280 280 276 274 269 267 267 265 264 265 265 266 263 260 255 252 249 nan 251 256 258 255 256 nan nan nan
nan nan nan nan nan nan nan nan nan nan nan nan nan nan nan nan nan nan nan nan 251 257 257 264 nan nan nan 275 277 270 263 289 278 281 287 284 292 293 297 289 281 281 278 nan 292 nan 285 282 279 282 284 285 287 287 291 296 287 279 287 285 285 283 282 279 275 273 270 267 266 265 263 262 259 256 256 255 255 255 254 253 251 254 254 nan nan nan nan
nan nan nan nan nan nan nan nan nan nan nan nan 202 nan nan nan nan nan nan nan nan 259 nan nan nan nan nan 284 nan 293 284 285 293 289 296 288 287 299 299 296 282 nan 288 294 290 290 286 286 288 287 nan 291 287 285 289 288 283 283 290 289 290 285 279 274 271 270 268 268 267 267 266 265 264 264 262 258 256 256 257 258 255 249 253 nan nan nan nan
nan nan nan nan nan nan nan nan nan nan nan nan nan nan nan nan nan nan nan nan nan 281 nan nan nan nan nan 297 300 291 282 293 297 296 296 293 290 293 299 299 291 nan 290 291 293 292 291 293 292 293 294 290 nan 293 289 nan 271 274 nan nan nan 274 nan 279 276 275 271 267 265 265 266 265 263 262 262 261 258 255 255 255 254 253 251 nan nan nan nan
nan nan nan nan nan nan nan nan nan nan nan nan 224 nan nan nan nan nan nan 261 nan nan 273 281 289 303 296 299 nan 287 nan nan 294 298 293 294 293 296 303 303 302 303 296 296 295 296 296 295 294 295 293 nan nan 290 nan nan nan nan nan nan 284 nan nan 279 275 271 266 266 269 272 266 265 263 261 258 258 259 259 255 257 258 254 251 251 nan nan nan
nan nan nan nan nan nan nan nan nan nan 192 nan nan nan nan nan nan nan nan nan nan nan nan 281 297 300 300 300 nan 289 nan nan nan 297 302 307 306 305 306 304 307 300 299 298 297 297 293 293 293 296 292 287 290 294 291 287 286 287 nan nan nan nan 280 274 274 278 276 274 270 267 268 268 265 263 261 257 257 255 255 254 257 258 254 252 250 252 nan
nan nan nan nan nan nan nan nan 197 nan nan nan nan nan nan nan 271 nan nan nan nan nan nan nan nan nan 285 295 304 297 nan 302 299 304 310 311 310 309 310 310 308 305 307 302 298 295 297 299 304 302 296 nan 297 290 nan nan 288 289 nan nan nan 285 276 276 nan 281 279 277 276 275 271 268 266 265 263 259 258 258 255 253 251 250 251 250 250 nan nan
nan nan nan nan nan nan 192 191 nan nan nan nan nan nan nan 267 nan nan nan 294 nan nan nan nan nan 304 301 304 309 309 nan 305 312 nan 316 311 nan nan 309 313 308 307 306 305 304 301 303 302 292 nan 298 294 292 nan nan 290 290 288 288 288 nan nan nan nan nan 275 274 274 273 nan nan 270 267 263 262 261 261 257 255 254 254 253 nan nan nan nan nan
nan nan nan nan nan 196 nan nan nan nan nan nan nan nan nan 273 nan nan 286 294 nan 299 304 nan 297 297 309 308 311 316 316 319 316 nan 312 315 nan nan 311 nan 311 nan nan nan 304 301 302 nan nan nan nan 296 295 294 294 293 293 292 290 287 284 282 279 nan nan nan nan nan nan nan nan nan nan 259 258 255 254 256 259 254 254 255 nan nan nan nan nan
nan nan nan nan nan nan nan nan nan nan nan nan nan 257 nan nan 298 nan nan nan nan 283 284 293 304 302 306 311 317 nan 311 314 315 316 314 nan 314 317 314 nan nan nan nan nan nan 306 305 nan 302 nan 302 301 301 298 298 297 295 294 292 nan 289 nan nan nan nan 278 280 278 nan nan nan nan nan 256 257 252 251 250 253 260 260 nan nan nan nan nan nan
nan nan nan nan nan nan nan nan nan nan nan nan nan nan nan nan nan nan nan nan 278 279 269 288 306 309 323 333 322 317 317 319 316 319 318 nan 317 319 317 nan nan nan nan nan nan 305 nan nan nan nan nan 306 304 303 301 299 300 299 298 296 294 292 nan nan nan nan nan 283 277 nan nan nan nan nan 259 260 256 252 253 255 258 260 nan nan nan nan nan
nan nan nan nan nan nan nan nan nan nan nan nan nan nan nan nan nan nan 294 274 283 283 nan 327 311 310 307 316 312 313 313 317 321 322 322 324 320 319 319 318 nan nan nan nan nan nan nan nan nan nan 306 307 308 305 303 302 301 300 298 295 292 294 298 nan nan nan nan nan 283 nan nan 269 264 258 258 259 258 255 256 255 255 nan nan nan nan nan nan
nan nan nan nan nan nan nan nan nan nan nan nan nan nan nan nan nan nan 273 291 292 299 320 328 318 309 318 316 322 320 318 316 nan nan 325 322 nan nan nan nan 317 319 nan nan nan nan nan nan nan nan nan nan nan nan 304 302 302 299 294 288 289 295 301 304 301 nan nan 288 281 276 273 270 nan nan 253 257 256 260 258 253 254 256 nan nan nan nan nan
nan nan nan nan nan nan nan nan nan nan nan nan nan nan nan nan 263 269 276 286 302 301 311 309 313 327 326 322 324 320 321 320 nan nan nan nan nan nan nan 324 nan nan nan nan nan nan nan nan nan nan nan nan nan nan nan nan nan nan nan nan nan nan nan nan nan nan nan nan nan nan nan nan 264 260 253 249 nan nan nan 255 254 253 nan nan nan nan nan
nan nan nan nan nan nan nan nan nan nan nan nan nan nan nan 285 nan 278 302 317 307 299 311 323 316 309 nan 315 323 324 326 322 324 325 324 322 nan nan nan nan nan nan nan nan nan nan nan nan nan nan nan nan nan nan nan nan nan nan nan nan nan nan nan nan nan nan nan nan nan nan nan nan nan 263 259 251 253 255 257 257 253 nan nan nan nan nan nan
nan nan nan nan nan nan nan nan nan nan nan nan nan 264 269 270 274 289 301 308 309 316 311 315 324 316 315 322 325 325 325 323 nan nan nan nan nan nan nan nan nan nan nan nan nan nan nan nan nan nan nan nan nan nan nan nan nan nan nan nan nan nan nan nan nan nan nan nan nan nan nan nan nan 255 253 247 245 245 250 nan nan nan nan nan nan nan nan
nan nan nan nan nan nan nan nan nan nan nan nan nan 273 273 267 278 283 292 297 310 314 316 320 321 318 322 314 nan nan nan nan nan nan nan nan nan nan nan nan nan nan nan nan nan nan nan nan nan nan nan nan nan nan nan nan nan nan nan nan nan nan nan nan nan nan nan nan nan nan nan 258 252 249 246 nan 233 244 253 nan nan nan nan nan nan nan nan
nan nan nan nan nan nan nan nan nan nan nan nan 273 270 269 274 276 286 294 301 304 315 316 324 317 nan nan 318 nan nan nan nan nan nan nan nan nan nan nan nan nan nan nan nan nan nan nan nan nan nan nan nan nan nan nan nan nan nan nan nan nan nan nan nan nan nan nan nan nan nan 274 260 249 nan nan nan 222 225 233 245 nan 242 nan nan nan nan nan
nan nan nan nan nan nan nan nan nan nan nan nan 274 268 271 277 284 286 290 294 295 308 318 322 nan nan nan nan nan nan nan nan nan nan nan nan nan nan nan nan nan nan nan nan nan nan nan nan nan nan nan nan nan nan nan nan nan 303 nan nan nan nan nan nan nan nan nan nan nan nan nan 249 232 216 215 nan nan nan nan 230 nan nan nan nan nan nan nan
nan nan nan nan nan nan nan nan nan nan nan 254 249 254 257 275 284 288 286 287 295 302 312 321 nan nan nan nan nan nan nan nan nan nan nan nan nan nan nan nan nan nan nan nan nan nan nan nan nan nan nan nan nan nan nan nan nan nan nan nan nan nan nan nan nan 322 325 329 324 307 279 241 205 201 208 218 225 220 nan nan nan nan nan nan nan nan nan
nan nan nan nan nan nan nan nan nan nan 267 280 264 253 246 263 283 288 288 295 301 307 311 315 nan nan nan nan nan nan nan nan nan nan nan nan nan nan nan nan nan nan nan nan nan nan nan nan nan nan nan nan nan nan nan nan nan nan nan nan nan nan nan nan nan nan nan 12 nan nan nan nan nan 190 211 224 nan nan nan nan nan nan nan nan nan nan nan